FW9693 Weather Reports


Display with metric or nautical units.
time (UTC)temp
F
wind
direction
speed
MPH
gust
MPH
rain 1hr
in
rain 24hr
in
rain mn
in
humidity
%
barometer
mb
20260506044531 74 155 9.0 11.0 0.00 0.00 0.00 35 1002.1
20260506043018 77 45 4.0 6.0 0.00 0.00 0.00 29 1002.0
20260506041519 77 294 3.0 5.0 0.00 0.00 0.00 28 1001.7
20260506040028 77 287 3.0 7.0 0.00 0.00 0.00 28 1001.5
20260506034517 77 309 7.0 10.0 0.00 0.00 0.00 29 1001.1
20260506033020 77 324 9.0 11.0 0.00 0.00 0.00 29 1000.8
20260506031518 76 321 8.0 12.0 0.00 0.00 0.00 30 1000.6
20260506030018 80 286 5.0 7.0 0.00 0.00 0.00 25 1000.3
20260506024526 80 294 3.0 4.0 0.00 0.00 0.00 25 1000.0
20260506023014 79 309 4.0 5.0 0.00 0.00 0.00 26 1000.1
20260506021521 79 265 3.0 4.0 0.00 0.00 0.00 26 1000.1
20260506020013 80 273 3.0 7.0 0.00 0.00 0.00 25 1000.0
20260506014521 80 296 5.0 7.0 0.00 0.00 0.00 26 999.9
20260506013012 80 303 4.0 5.0 0.00 0.00 0.00 26 999.9
20260506011520 80 277 4.0 7.0 0.00 0.00 0.00 26 1000.0
20260506010013 81 265 7.0 9.0 0.00 0.00 0.00 25 1000.0
20260506004509 81 279 8.0 15.0 0.00 0.00 0.00 25 1000.1
20260506003007 81 298 7.0 12.0 0.00 0.00 0.00 25 1000.2
20260506001630 81 275 13.0 17.0 0.00 0.00 0.00 24 1000.3
20260506000014 81 281 14.0 19.0 0.00 0.00 0.00 24 1000.3
20260505234515 80 292 14.0 19.0 0.00 0.00 0.00 25 1000.5
20260505233011 80 272 15.0 24.0 0.00 0.00 0.00 24 1000.7
20260505231504 80 288 14.0 21.0 0.00 0.00 0.00 24 1000.6
20260505230002 80 286 15.0 26.0 0.00 0.00 0.00 25 1000.8
20260505224501 80 287 19.0 24.0 0.00 0.00 0.00 24 1000.8
20260505223113 80 312 22.0 29.0 0.00 0.00 0.00 24 1000.8
20260505221603 80 294 24.0 33.0 0.00 0.00 0.00 24 1000.7
20260505220059 80 292 27.0 33.0 0.00 0.00 0.00 24 1000.9
20260505214602 80 271 13.0 21.0 0.00 0.00 0.00 25 1001.4
20260505213054 80 275 21.0 29.0 0.00 0.00 0.00 25 1001.6
20260505211624 80 272 21.0 27.0 0.00 0.00 0.00 25 1001.4
20260505210055 80 252 20.0 31.0 0.00 0.00 0.00 25 1001.7
20260505204556 80 286 19.0 28.0 0.00 0.00 0.00 26 1001.7
20260505203114 80 280 25.0 34.0 0.00 0.00 0.00 25 1001.8
20260505201551 80 259 25.0 36.0 0.00 0.00 0.00 25 1001.9
20260505200050 81 277 24.0 33.0 0.00 0.00 0.00 24 1001.8
20260505194550 81 286 24.0 36.0 0.00 0.00 0.00 24 1002.1
20260505193047 80 252 23.0 30.0 0.00 0.00 0.00 25 1001.9
20260505191554 80 262 21.0 32.0 0.00 0.00 0.00 26 1001.9
20260505190047 80 282 21.0 29.0 0.00 0.00 0.00 27 1002.1
20260505184550 80 254 23.0 29.0 0.00 0.00 0.00 26 1002.1
20260505183048 80 267 26.0 30.0 0.00 0.00 0.00 27 1002.4
20260505181552 79 257 15.0 21.0 0.00 0.00 0.00 27 1002.7
20260505180055 79 262 12.0 16.0 0.00 0.00 0.00 26 1002.7
20260505174546 79 270 8.0 14.0 0.00 0.00 0.00 26 1002.6
20260505173044 78 237 11.0 16.0 0.00 0.00 0.00 26 1002.8
20260505171534 78 273 9.0 14.0 0.00 0.00 0.00 26 1002.8
20260505170037 77 261 11.0 17.0 0.00 0.00 0.00 27 1002.9
20260505164535 77 255 13.0 16.0 0.00 0.00 0.00 27 1003.1
20260505163033 77 255 13.0 17.0 0.00 0.00 0.00 27 1002.9
20260505161531 77 281 11.0 18.0 0.00 0.00 0.00 27 1002.6
20260505153031 76 263 11.0 15.0 0.00 0.00 0.00 27 1002.5
20260505151538 74 311 4.0 8.0 0.00 0.00 0.00 32 1002.4
20260505124534 71 242 14.0 18.0 0.00 0.00 0.00 29 1000.7
20260505123033 70 225 15.0 18.0 0.00 0.00 0.00 30 1000.6
20260505121536 68 218 11.0 14.0 0.00 0.00 0.00 36 1000.5
20260505120030 69 221 6.0 8.0 0.00 0.00 0.00 33 1000.4
20260505114524 69 243 8.0 10.0 0.00 0.00 0.00 33 1000.2
20260505113036 69 265 9.0 12.0 0.00 0.00 0.00 34 1000.1
20260505111538 68 273 9.0 12.0 0.00 0.00 0.00 35 1000.0
20260505101529 68 303 9.0 16.0 0.00 0.00 0.00 37 999.9
20260505100016 70 233 14.0 18.0 0.00 0.00 0.00 35 1000.0
20260505094511 70 243 14.0 18.0 0.00 0.00 0.00 34 999.9
20260505093009 71 225 14.0 17.0 0.00 0.00 0.00 33 999.9
20260505091506 71 219 11.0 14.0 0.00 0.00 0.00 34 1000.0
20260505090006 72 223 14.0 17.0 0.00 0.00 0.00 32 1000.1
20260505084518 71 221 12.0 15.0 0.00 0.00 0.00 34 1000.0
20260505083002 72 235 13.0 16.0 0.00 0.00 0.00 32 1000.0
20260505081501 73 232 13.0 16.0 0.00 0.00 0.00 31 999.9
20260505080059 72 238 10.0 12.0 0.00 0.00 0.00 33 1000.1
20260505074557 73 235 9.0 12.0 0.00 0.00 0.00 31 1000.3
20260505073058 74 226 10.0 12.0 0.00 0.00 0.00 30 1000.5
20260505071559 74 213 9.0 11.0 0.00 0.00 0.00 30 1000.3
20260505064555 76 214 10.0 11.0 0.00 0.00 0.00 27 1000.8
20260505063045 77 200 8.0 10.0 0.00 0.00 0.00 25 1000.9
20260505061609 79 229 8.0 11.0 0.00 0.00 0.00 23 1001.1
20260505060051 79 223 9.0 11.0 0.00 0.00 0.00 22 1001.2